| time (UTC) | temp F | wind direction | speed knots | gust knots | rain 1hr in | rain 24hr in | rain mn in | humidity % | barometer mb |
| 20260504205007 | 70 | 127 | 1.7 | 7.8 | 0.00 | 0.00 | 0.00 | 29 | 1013.0 |
| 20260504204737 | 70 | 269 | 2.6 | 7.8 | 0.00 | 0.00 | 0.00 | 29 | 1014.7 |
| 20260504204527 | 69 | 188 | 0.9 | 7.8 | 0.00 | 0.00 | 0.00 | 29 | 1013.0 |
| 20260504204237 | 69 | 274 | 2.6 | 7.8 | 0.00 | 0.00 | 0.00 | 29 | 1014.8 |
| 20260504204009 | 69 | 184 | 1.7 | 9.6 | 0.00 | 0.00 | 0.00 | 28 | 1013.1 |
| 20260504203737 | 69 | 274 | 2.6 | 9.6 | 0.00 | 0.00 | 0.00 | 30 | 1014.7 |
| 20260504203503 | 69 | 311 | 0.9 | 9.6 | 0.00 | 0.00 | 0.00 | 29 | 1013.1 |
| 20260504203237 | 70 | 267 | 2.6 | 9.6 | 0.00 | 0.00 | 0.00 | 29 | 1014.7 |
| 20260504203006 | 69 | 213 | 0.9 | 8.7 | 0.00 | 0.00 | 0.00 | 29 | 1013.2 |
| 20260504202736 | 70 | 229 | 1.7 | 8.7 | 0.00 | 0.00 | 0.00 | 29 | 1014.7 |
| 20260504202502 | 70 | 323 | 2.6 | 8.7 | 0.00 | 0.00 | 0.00 | 28 | 1013.1 |
| 20260504202230 | 70 | 284 | 1.7 | 7.0 | 0.00 | 0.00 | 0.00 | 30 | 1014.8 |
| 20260504202004 | 70 | 94 | 0.9 | 5.2 | 0.00 | 0.00 | 0.00 | 32 | 1013.1 |
| 20260504201724 | 70 | 98 | 1.7 | 5.2 | 0.00 | 0.00 | 0.00 | 31 | 1014.8 |
| 20260504201504 | 70 | 304 | 0.9 | 8.7 | 0.00 | 0.00 | 0.00 | 29 | 1013.1 |
| 20260504201219 | 70 | 232 | 1.7 | 8.7 | 0.00 | 0.00 | 0.00 | 30 | 1014.8 |
| 20260504201004 | 69 | 243 | 1.7 | 8.7 | 0.00 | 0.00 | 0.00 | 31 | 1013.2 |
| 20260504200713 | 69 | 315 | 1.7 | 8.7 | 0.00 | 0.00 | 0.00 | 30 | 1014.8 |
| 20260504200503 | 69 | 265 | 0.0 | 6.1 | 0.00 | 0.00 | 0.00 | 33 | 1013.3 |
| 20260504200206 | 69 | 316 | 1.7 | 7.0 | 0.00 | 0.00 | 0.00 | 33 | 1014.8 |
| 20260504200004 | 68 | 146 | 0.9 | 7.0 | 0.00 | 0.00 | 0.00 | 33 | 1013.3 |
| 20260504195923 | 68 | 243 | 2.6 | 11.3 | 0.00 | 0.00 | 0.00 | 31 | 1014.7 |
| 20260504195502 | 68 | 261 | 2.6 | 11.3 | 0.00 | 0.00 | 0.00 | 31 | 1013.3 |
| 20260504195155 | 68 | 321 | 2.6 | 11.3 | 0.00 | 0.00 | 0.00 | 31 | 1014.9 |
| 20260504195003 | 68 | 315 | 4.3 | 11.3 | 0.00 | 0.00 | 0.00 | 30 | 1013.4 |
| 20260504194653 | 69 | 320 | 1.7 | 9.6 | 0.00 | 0.00 | 0.00 | 31 | 1014.8 |
| 20260504194507 | 69 | 239 | 1.7 | 9.6 | 0.00 | 0.00 | 0.00 | 31 | 1013.4 |
| 20260504194153 | 69 | 242 | 1.7 | 7.8 | 0.00 | 0.00 | 0.00 | 32 | 1015.0 |
| 20260504194003 | 69 | 125 | 0.0 | 7.8 | 0.00 | 0.00 | 0.00 | 33 | 1013.3 |
| 20260504193652 | 69 | 63 | 1.7 | 7.8 | 0.00 | 0.00 | 0.00 | 32 | 1015.0 |
| 20260504193503 | 69 | 282 | 0.9 | 7.8 | 0.00 | 0.00 | 0.00 | 32 | 1013.4 |
| 20260504193009 | 69 | 115 | 1.7 | 6.1 | 0.00 | 0.00 | 0.00 | 32 | 1013.5 |
| 20260504192913 | 70 | 159 | 1.7 | 5.2 | 0.00 | 0.00 | 0.00 | 31 | 1014.9 |
| 20260504192506 | 70 | 188 | 1.7 | 5.2 | 0.00 | 0.00 | 0.00 | 31 | 1013.6 |
| 20260504192410 | 70 | 277 | 0.9 | 5.2 | 0.00 | 0.00 | 0.00 | 32 | 1015.0 |
| 20260504192002 | 70 | 130 | 0.0 | 4.3 | 0.00 | 0.00 | 0.00 | 31 | 1013.4 |
| 20260504191647 | 70 | 24 | 0.9 | 3.5 | 0.00 | 0.00 | 0.00 | 34 | 1015.0 |
| 20260504191504 | 69 | 88 | 0.9 | 3.5 | 0.00 | 0.00 | 0.00 | 33 | 1013.5 |
| 20260504191415 | 69 | 9 | 0.9 | 5.2 | 0.00 | 0.00 | 0.00 | 33 | 1015.0 |
| 20260504191002 | 69 | 91 | 0.9 | 6.1 | 0.00 | 0.00 | 0.00 | 34 | 1013.5 |
| 20260504190647 | 69 | 111 | 1.7 | 6.1 | 0.00 | 0.00 | 0.00 | 35 | 1015.0 |
| 20260504190504 | 68 | 101 | 0.9 | 6.1 | 0.00 | 0.00 | 0.00 | 33 | 1013.5 |
| 20260504190146 | 68 | 132 | 1.7 | 6.1 | 0.00 | 0.00 | 0.00 | 33 | 1014.9 |
| 20260504190004 | 68 | 204 | 1.7 | 7.8 | 0.00 | 0.00 | 0.00 | 34 | 1013.5 |
| 20260504185647 | 67 | 255 | 1.7 | 7.8 | 0.00 | 0.00 | 0.00 | 35 | 1015.0 |
| 20260504185503 | 67 | 71 | 0.0 | 7.8 | 0.00 | 0.00 | 0.00 | 37 | 1013.6 |
| 20260504185146 | 67 | 141 | 1.7 | 7.8 | 0.00 | 0.00 | 0.00 | 34 | 1014.9 |
| 20260504185006 | 67 | 234 | 1.7 | 7.8 | 0.00 | 0.00 | 0.00 | 33 | 1013.6 |
| 20260504184647 | 68 | 197 | 1.7 | 7.0 | 0.00 | 0.00 | 0.00 | 34 | 1015.0 |
| 20260504184504 | 67 | 294 | 0.9 | 4.3 | 0.00 | 0.00 | 0.00 | 34 | 1013.6 |
| 20260504184409 | 67 | 73 | 1.7 | 5.2 | 0.00 | 0.00 | 0.00 | 35 | 1015.0 |
| 20260504184007 | 66 | 184 | 1.7 | 6.1 | 0.00 | 0.00 | 0.00 | 35 | 1013.6 |
| 20260504183642 | 67 | 187 | 1.7 | 6.1 | 0.00 | 0.00 | 0.00 | 34 | 1015.1 |
| 20260504183504 | 66 | 236 | 1.7 | 6.1 | 0.00 | 0.00 | 0.00 | 34 | 1013.6 |
| 20260504183143 | 67 | 175 | 2.6 | 11.3 | 0.00 | 0.00 | 0.00 | 35 | 1015.1 |
| 20260504183011 | 66 | 229 | 0.9 | 11.3 | 0.00 | 0.00 | 0.00 | 35 | 1013.6 |
| 20260504182641 | 66 | 86 | 2.6 | 11.3 | 0.00 | 0.00 | 0.00 | 36 | 1015.0 |
| 20260504182503 | 66 | 259 | 4.3 | 11.3 | 0.00 | 0.00 | 0.00 | 34 | 1013.6 |
| 20260504182406 | 66 | 321 | 2.6 | 8.7 | 0.00 | 0.00 | 0.00 | 35 | 1015.0 |
| 20260504182004 | 65 | 236 | 1.7 | 8.7 | 0.00 | 0.00 | 0.00 | 36 | 1013.5 |
| 20260504181634 | 65 | 279 | 2.6 | 8.7 | 0.00 | 0.00 | 0.00 | 35 | 1015.0 |
| 20260504181523 | 65 | 241 | 2.6 | 7.8 | 0.00 | 0.00 | 0.00 | 34 | 1013.4 |
| 20260504181129 | 66 | 289 | 1.7 | 7.8 | 0.00 | 0.00 | 0.00 | 35 | 1014.9 |
| 20260504181002 | 65 | 265 | 1.7 | 7.8 | 0.00 | 0.00 | 0.00 | 36 | 1013.5 |
| 20260504180622 | 66 | 265 | 1.7 | 7.0 | 0.00 | 0.00 | 0.00 | 35 | 1014.9 |
| 20260504180504 | 65 | 284 | 1.7 | 7.0 | 0.00 | 0.00 | 0.00 | 35 | 1013.4 |
| 20260504180116 | 65 | 350 | 1.7 | 7.0 | 0.00 | 0.00 | 0.00 | 37 | 1014.9 |
| 20260504180005 | 65 | 316 | 1.7 | 7.0 | 0.00 | 0.00 | 0.00 | 36 | 1013.5 |
| 20260504175610 | 65 | 255 | 1.7 | 7.0 | 0.00 | 0.00 | 0.00 | 36 | 1014.8 |
| 20260504175504 | 65 | 265 | 1.7 | 7.0 | 0.00 | 0.00 | 0.00 | 35 | 1013.4 |
| 20260504175104 | 65 | 208 | 2.6 | 8.7 | 0.00 | 0.00 | 0.00 | 37 | 1014.8 |
| 20260504175003 | 64 | 312 | 2.6 | 8.7 | 0.00 | 0.00 | 0.00 | 36 | 1013.5 |
| 20260504174558 | 65 | 277 | 2.6 | 8.7 | 0.00 | 0.00 | 0.00 | 36 | 1014.8 |
| 20260504174504 | 64 | 239 | 2.6 | 8.7 | 0.00 | 0.00 | 0.00 | 35 | 1013.4 |
| 20260504174052 | 65 | 273 | 1.7 | 6.1 | 0.00 | 0.00 | 0.00 | 36 | 1014.8 |
| 20260504174003 | 65 | 239 | 1.7 | 6.1 | 0.00 | 0.00 | 0.00 | 35 | 1013.5 |
| 20260504173809 | 65 | 314 | 1.7 | 6.1 | 0.00 | 0.00 | 0.00 | 38 | 1014.8 |
| 20260504173504 | 65 | 203 | 0.0 | 6.1 | 0.00 | 0.00 | 0.00 | 37 | 1013.5 |
| 20260504173040 | 65 | 300 | 2.6 | 7.0 | 0.00 | 0.00 | 0.00 | 37 | 1015.2 |
| 20260504173004 | 64 | 252 | 0.9 | 7.8 | 0.00 | 0.00 | 0.00 | 36 | 1013.5 |
| 20260504172534 | 64 | 272 | 2.6 | 7.8 | 0.00 | 0.00 | 0.00 | 38 | 1015.1 |
| 20260504172504 | 63 | 257 | 1.7 | 7.8 | 0.00 | 0.00 | 0.00 | 37 | 1013.6 |
| 20260504172028 | 64 | 304 | 2.6 | 9.6 | 0.00 | 0.00 | 0.00 | 37 | 1015.2 |
| 20260504172005 | 63 | 263 | 0.9 | 9.6 | 0.00 | 0.00 | 0.00 | 37 | 1013.6 |
| 20260504171522 | 63 | 262 | 3.5 | 9.6 | 0.00 | 0.00 | 0.00 | 38 | 1015.1 |
| 20260504171509 | 63 | 262 | 1.7 | 9.6 | 0.00 | 0.00 | 0.00 | 37 | 1013.5 |
| 20260504171016 | 63 | 276 | 3.5 | 10.4 | 0.00 | 0.00 | 0.00 | 38 | 1015.1 |
| 20260504171006 | 63 | 282 | 3.5 | 10.4 | 0.00 | 0.00 | 0.00 | 37 | 1013.6 |
| 20260504170510 | 64 | 250 | 3.5 | 10.4 | 0.00 | 0.00 | 0.00 | 37 | 1015.1 |
| 20260504170505 | 63 | 263 | 1.7 | 10.4 | 0.00 | 0.00 | 0.00 | 36 | 1013.6 |
| 20260504170227 | 63 | 277 | 2.6 | 9.6 | 0.00 | 0.00 | 0.00 | 37 | 1015.1 |
| 20260504160358 | 61 | 330 | 1.7 | 8.7 | 0.00 | 0.00 | 0.00 | 38 | 1015.2 |
| 20260504151003 | 57 | 281 | 0.0 | 3.5 | 0.00 | 0.00 | 0.00 | 44 | 1013.6 |
| 20260504150752 | 57 | 281 | 0.9 | 3.5 | 0.00 | 0.00 | 0.00 | 44 | 1015.1 |
| 20260504150503 | 57 | 282 | 0.0 | 3.5 | 0.00 | 0.00 | 0.00 | 44 | 1013.6 |
| 20260504150246 | 57 | 283 | 0.9 | 3.5 | 0.00 | 0.00 | 0.00 | 44 | 1015.1 |
| 20260504141146 | 49 | 275 | 0.0 | 0.0 | 0.00 | 0.00 | 0.00 | 59 | 1014.8 |
| 20260504141010 | 48 | 275 | 0.0 | 0.0 | 0.00 | 0.00 | 0.00 | 59 | 1013.5 |
| 20260504140640 | 49 | 275 | 0.0 | 0.0 | 0.00 | 0.00 | 0.00 | 59 | 1014.9 |
| 20260504140503 | 48 | 275 | 0.0 | 0.0 | 0.00 | 0.00 | 0.00 | 60 | 1013.6 |
| 20260504140134 | 48 | 275 | 0.0 | 0.0 | 0.00 | 0.00 | 0.00 | 58 | 1014.9 |
| 20260504130615 | 46 | 292 | 0.0 | 0.0 | 0.00 | 0.00 | 0.00 | 59 | 1014.7 |
| 20260504130506 | 46 | 292 | 0.0 | 0.0 | 0.00 | 0.00 | 0.00 | 58 | 1013.4 |
| 20260504130114 | 46 | 292 | 0.0 | 0.0 | 0.00 | 0.00 | 0.00 | 60 | 1014.8 |
| 20260504120107 | 47 | 292 | 0.9 | 2.6 | 0.00 | 0.00 | 0.00 | 56 | 1014.7 |
| 20260504110558 | 48 | 312 | 0.9 | 3.5 | 0.00 | 0.00 | 0.00 | 58 | 1014.5 |
| 20260504110502 | 47 | 312 | 0.0 | 3.5 | 0.00 | 0.00 | 0.00 | 56 | 1013.1 |
| 20260504100549 | 48 | 298 | 0.9 | 2.6 | 0.00 | 0.00 | 0.00 | 57 | 1014.7 |
| 20260504100507 | 47 | 298 | 0.9 | 2.6 | 0.00 | 0.00 | 0.00 | 57 | 1013.2 |
| 20260504082003 | 51 | 306 | 0.9 | 3.5 | 0.00 | 0.00 | 0.00 | 49 | 1013.6 |
| 20260504081855 | 51 | 306 | 0.9 | 3.5 | 0.00 | 0.00 | 0.00 | 51 | 1015.0 |
| 20260504081511 | 51 | 284 | 0.0 | 3.5 | 0.00 | 0.00 | 0.00 | 49 | 1013.6 |
| 20260504081349 | 52 | 300 | 0.0 | 0.0 | 0.00 | 0.00 | 0.00 | 50 | 1015.0 |
| 20260504081005 | 51 | 301 | 0.0 | 0.0 | 0.00 | 0.00 | 0.00 | 49 | 1013.6 |
| 20260504080844 | 52 | 296 | 0.0 | 0.0 | 0.00 | 0.00 | 0.00 | 48 | 1014.9 |
| 20260504080506 | 52 | 296 | 0.0 | 0.0 | 0.00 | 0.00 | 0.00 | 47 | 1013.5 |
| 20260504080347 | 52 | 296 | 0.0 | 0.0 | 0.00 | 0.00 | 0.00 | 48 | 1014.8 |
| 20260504060216 | 61 | 92 | 0.9 | 4.3 | 0.00 | 0.00 | 0.00 | 37 | 1015.3 |
| 20260504050507 | 59 | 240 | 0.0 | 1.7 | 0.00 | 0.00 | 0.00 | 39 | 1014.2 |
| 20260504050208 | 60 | 161 | 0.0 | 1.7 | 0.00 | 0.00 | 0.00 | 39 | 1015.8 |
| 20260504045708 | 60 | 154 | 0.0 | 3.5 | 0.00 | 0.00 | 0.00 | 40 | 1015.8 |
| 20260504045510 | 59 | 154 | 0.0 | 4.3 | 0.00 | 0.00 | 0.00 | 39 | 1014.2 |
| 20260504045207 | 60 | 154 | 0.0 | 4.3 | 0.00 | 0.00 | 0.00 | 41 | 1015.8 |
| 20260504045007 | 59 | 200 | 0.0 | 4.3 | 0.00 | 0.00 | 0.00 | 39 | 1014.2 |
| 20260504044708 | 60 | 200 | 0.9 | 4.3 | 0.00 | 0.00 | 0.00 | 41 | 1015.9 |
| 20260504044526 | 59 | 284 | 0.0 | 2.6 | 0.00 | 0.00 | 0.00 | 40 | 1014.2 |
| 20260504044208 | 59 | 319 | 0.9 | 2.6 | 0.00 | 0.00 | 0.00 | 41 | 1015.8 |
| 20260504044009 | 59 | 319 | 0.0 | 6.1 | 0.00 | 0.00 | 0.00 | 41 | 1014.2 |
| 20260504043928 | 58 | 329 | 0.9 | 6.1 | 0.00 | 0.00 | 0.00 | 41 | 1015.7 |
| 20260504043503 | 58 | 327 | 0.0 | 6.1 | 0.00 | 0.00 | 0.00 | 42 | 1014.2 |
| 20260504043207 | 57 | 133 | 0.9 | 6.1 | 0.00 | 0.00 | 0.00 | 43 | 1015.7 |
| 20260504043015 | 57 | 126 | 0.0 | 3.5 | 0.00 | 0.00 | 0.00 | 43 | 1014.0 |
| 20260504042708 | 57 | 130 | 0.9 | 3.5 | 0.00 | 0.00 | 0.00 | 46 | 1015.6 |
| 20260504042507 | 56 | 111 | 0.9 | 3.5 | 0.00 | 0.00 | 0.00 | 44 | 1014.0 |
| 20260504042201 | 56 | 157 | 0.0 | 4.3 | 0.00 | 0.00 | 0.00 | 47 | 1015.6 |
| 20260504042006 | 55 | 338 | 0.0 | 4.3 | 0.00 | 0.00 | 0.00 | 46 | 1014.1 |
| 20260504041655 | 56 | 342 | 0.0 | 4.3 | 0.00 | 0.00 | 0.00 | 47 | 1015.7 |
| 20260504041519 | 55 | 342 | 0.9 | 4.3 | 0.00 | 0.00 | 0.00 | 46 | 1014.1 |
| 20260504041005 | 55 | 173 | 0.0 | 0.0 | 0.00 | 0.00 | 0.00 | 48 | 1014.0 |
| 20260504040644 | 55 | 173 | 0.0 | 0.0 | 0.00 | 0.00 | 0.00 | 49 | 1015.7 |
| 20260504040507 | 55 | 173 | 0.0 | 0.0 | 0.00 | 0.00 | 0.00 | 48 | 1014.1 |
| 20260504040138 | 55 | 173 | 0.0 | 0.0 | 0.00 | 0.00 | 0.00 | 49 | 1015.6 |
| 20260504040027 | 55 | 173 | 0.0 | 0.0 | 0.00 | 0.00 | 0.00 | 48 | 1014.0 |
| 20260504035632 | 56 | 173 | 0.0 | 0.0 | 0.00 | 0.00 | 0.00 | 48 | 1015.6 |
| 20260504035503 | 56 | 173 | 0.0 | 0.0 | 0.00 | 0.00 | 0.00 | 49 | 1014.0 |
| 20260504035125 | 56 | 173 | 0.0 | 0.9 | 0.00 | 0.00 | 0.00 | 48 | 1015.6 |
| 20260504035005 | 56 | 173 | 0.0 | 1.7 | 0.00 | 0.00 | 0.00 | 46 | 1014.0 |
| 20260504034618 | 57 | 173 | 0.0 | 1.7 | 0.00 | 0.00 | 0.00 | 47 | 1015.6 |
| 20260504034516 | 57 | 173 | 0.0 | 1.7 | 0.00 | 0.00 | 0.00 | 47 | 1014.0 |
| 20260504034111 | 58 | 173 | 0.0 | 1.7 | 0.00 | 0.00 | 0.00 | 47 | 1015.6 |
| 20260504034002 | 57 | 173 | 0.0 | 1.7 | 0.00 | 0.00 | 0.00 | 46 | 1014.1 |
| 20260504033605 | 58 | 173 | 0.0 | 1.7 | 0.00 | 0.00 | 0.00 | 46 | 1015.6 |
| 20260504033502 | 58 | 173 | 0.0 | 1.7 | 0.00 | 0.00 | 0.00 | 45 | 1014.0 |
| 20260504033059 | 59 | 173 | 0.0 | 0.9 | 0.00 | 0.00 | 0.00 | 45 | 1015.6 |
| 20260504033021 | 59 | 173 | 0.0 | 0.9 | 0.00 | 0.00 | 0.00 | 44 | 1014.0 |
| 20260504032553 | 60 | 173 | 0.0 | 1.7 | 0.00 | 0.00 | 0.00 | 44 | 1015.5 |
| 20260504032501 | 60 | 173 | 0.0 | 1.7 | 0.00 | 0.00 | 0.00 | 43 | 1013.9 |
| 20260504032047 | 61 | 173 | 0.0 | 2.6 | 0.00 | 0.00 | 0.00 | 43 | 1015.5 |
| 20260504032003 | 60 | 173 | 0.0 | 2.6 | 0.00 | 0.00 | 0.00 | 42 | 1013.9 |
| 20260504031803 | 62 | 173 | 0.0 | 2.6 | 0.00 | 0.00 | 0.00 | 42 | 1015.3 |
| 20260504031506 | 61 | 173 | 0.0 | 2.6 | 0.00 | 0.00 | 0.00 | 41 | 1013.9 |
| 20260504031304 | 62 | 173 | 0.0 | 0.9 | 0.00 | 0.00 | 0.00 | 41 | 1015.3 |
| 20260504031005 | 62 | 173 | 0.0 | 1.7 | 0.00 | 0.00 | 0.00 | 41 | 1013.9 |
| 20260504030529 | 63 | 173 | 0.0 | 1.7 | 0.00 | 0.00 | 0.00 | 41 | 1015.3 |
| 20260504030502 | 62 | 173 | 0.0 | 1.7 | 0.00 | 0.00 | 0.00 | 40 | 1013.9 |
| 20260504030245 | 63 | 173 | 0.0 | 1.7 | 0.00 | 0.00 | 0.00 | 39 | 1015.3 |
| 20260504030004 | 63 | 173 | 0.0 | 1.7 | 0.00 | 0.00 | 0.00 | 38 | 1013.8 |
| 20260504025517 | 64 | 173 | 0.0 | 1.7 | 0.00 | 0.00 | 0.00 | 38 | 1015.3 |
| 20260504025503 | 64 | 173 | 0.0 | 1.7 | 0.00 | 0.00 | 0.00 | 38 | 1013.9 |
| 20260504025010 | 65 | 173 | 0.0 | 1.7 | 0.00 | 0.00 | 0.00 | 38 | 1015.3 |
| 20260504025004 | 64 | 173 | 0.0 | 1.7 | 0.00 | 0.00 | 0.00 | 38 | 1013.8 |
| 20260504024511 | 65 | 173 | 0.0 | 1.7 | 0.00 | 0.00 | 0.00 | 36 | 1013.8 |
| 20260504024007 | 66 | 173 | 0.0 | 2.6 | 0.00 | 0.00 | 0.00 | 37 | 1013.8 |
| 20260504023959 | 66 | 173 | 0.0 | 2.6 | 0.00 | 0.00 | 0.00 | 38 | 1015.2 |
| 20260504023504 | 66 | 173 | 0.0 | 2.6 | 0.00 | 0.00 | 0.00 | 37 | 1013.8 |
| 20260504023454 | 67 | 173 | 0.0 | 2.6 | 0.00 | 0.00 | 0.00 | 37 | 1015.2 |
| 20260504023207 | 67 | 152 | 0.0 | 0.9 | 0.00 | 0.00 | 0.00 | 36 | 1015.2 |
| 20260504023003 | 67 | 152 | 0.0 | 0.9 | 0.00 | 0.00 | 0.00 | 35 | 1013.8 |
| 20260504022706 | 68 | 152 | 0.0 | 2.6 | 0.00 | 0.00 | 0.00 | 34 | 1015.2 |
| 20260504022503 | 68 | 152 | 0.0 | 2.6 | 0.00 | 0.00 | 0.00 | 33 | 1013.8 |
| 20260504022007 | 68 | 152 | 0.0 | 2.6 | 0.00 | 0.00 | 0.00 | 33 | 1013.9 |
| 20260504021935 | 69 | 152 | 0.0 | 2.6 | 0.00 | 0.00 | 0.00 | 33 | 1015.2 |
| 20260504021516 | 69 | 152 | 0.0 | 1.7 | 0.00 | 0.00 | 0.00 | 33 | 1013.9 |
| 20260504021429 | 69 | 152 | 0.0 | 1.7 | 0.00 | 0.00 | 0.00 | 34 | 1015.2 |
| 20260504021002 | 69 | 152 | 0.0 | 2.6 | 0.00 | 0.00 | 0.00 | 32 | 1013.9 |
| 20260504020923 | 70 | 152 | 0.9 | 2.6 | 0.00 | 0.00 | 0.00 | 33 | 1015.3 |
| 20260504020642 | 70 | 148 | 0.9 | 2.6 | 0.00 | 0.00 | 0.00 | 31 | 1015.5 |
| 20260504020502 | 70 | 148 | 0.0 | 2.6 | 0.00 | 0.00 | 0.00 | 30 | 1013.9 |
| 20260504020004 | 69 | 165 | 0.0 | 2.6 | 0.00 | 0.00 | 0.00 | 31 | 1013.9 |
| 20260504015911 | 70 | 165 | 0.9 | 2.6 | 0.00 | 0.00 | 0.00 | 32 | 1015.3 |
| 20260504015502 | 69 | 156 | 0.9 | 3.5 | 0.00 | 0.00 | 0.00 | 30 | 1014.0 |
| 20260504015405 | 70 | 156 | 0.9 | 3.5 | 0.00 | 0.00 | 0.00 | 30 | 1015.5 |
| 20260504015003 | 70 | 188 | 0.0 | 3.5 | 0.00 | 0.00 | 0.00 | 30 | 1013.9 |
| 20260504014859 | 71 | 189 | 0.9 | 3.5 | 0.00 | 0.00 | 0.00 | 30 | 1015.3 |
| 20260504014624 | 71 | 170 | 0.9 | 3.5 | 0.00 | 0.00 | 0.00 | 31 | 1015.3 |
| 20260504014503 | 70 | 170 | 0.0 | 3.5 | 0.00 | 0.00 | 0.00 | 31 | 1013.9 |
| 20260504014005 | 70 | 200 | 0.0 | 3.5 | 0.00 | 0.00 | 0.00 | 30 | 1013.9 |
| 20260504013847 | 71 | 200 | 0.9 | 4.3 | 0.00 | 0.00 | 0.00 | 30 | 1015.5 |
| 20260504013502 | 70 | 200 | 0.0 | 4.3 | 0.00 | 0.00 | 0.00 | 30 | 1014.0 |
| 20260504013341 | 71 | 200 | 0.9 | 4.3 | 0.00 | 0.00 | 0.00 | 30 | 1015.5 |
| 20260504013006 | 71 | 196 | 0.9 | 4.3 | 0.00 | 0.00 | 0.00 | 30 | 1013.9 |
| 20260504012835 | 71 | 165 | 0.9 | 2.6 | 0.00 | 0.00 | 0.00 | 31 | 1015.5 |
| 20260504012504 | 71 | 224 | 0.9 | 3.5 | 0.00 | 0.00 | 0.00 | 28 | 1014.0 |
| 20260504012330 | 71 | 132 | 1.7 | 3.5 | 0.00 | 0.00 | 0.00 | 30 | 1015.5 |
| 20260504012004 | 70 | 305 | 0.9 | 3.5 | 0.00 | 0.00 | 0.00 | 29 | 1014.0 |
| 20260504011824 | 71 | 276 | 0.9 | 3.5 | 0.00 | 0.00 | 0.00 | 29 | 1015.6 |
| 20260504011504 | 71 | 293 | 0.9 | 3.5 | 0.00 | 0.00 | 0.00 | 28 | 1014.0 |
| 20260504011317 | 71 | 325 | 0.9 | 3.5 | 0.00 | 0.00 | 0.00 | 28 | 1015.6 |
| 20260504011003 | 71 | 91 | 0.0 | 3.5 | 0.00 | 0.00 | 0.00 | 29 | 1014.1 |
| 20260504010811 | 71 | 265 | 0.9 | 3.5 | 0.00 | 0.00 | 0.00 | 29 | 1015.6 |
| 20260504010505 | 71 | 313 | 0.9 | 3.5 | 0.00 | 0.00 | 0.00 | 28 | 1014.1 |
| 20260504010305 | 72 | 114 | 1.7 | 3.5 | 0.00 | 0.00 | 0.00 | 29 | 1015.7 |
| 20260504010003 | 71 | 109 | 1.7 | 4.3 | 0.00 | 0.00 | 0.00 | 29 | 1014.1 |
| 20260504005759 | 71 | 156 | 1.7 | 4.3 | 0.00 | 0.00 | 0.00 | 29 | 1015.7 |
| 20260504005504 | 71 | 192 | 0.9 | 4.3 | 0.00 | 0.00 | 0.00 | 29 | 1014.2 |
| 20260504005253 | 72 | 238 | 1.7 | 6.1 | 0.00 | 0.00 | 0.00 | 27 | 1015.7 |
| 20260504005003 | 71 | 121 | 0.9 | 4.3 | 0.00 | 0.00 | 0.00 | 28 | 1014.1 |
| 20260504004747 | 72 | 200 | 1.7 | 6.1 | 0.00 | 0.00 | 0.00 | 29 | 1015.7 |
| 20260504004508 | 71 | 102 | 0.0 | 6.1 | 0.00 | 0.00 | 0.00 | 26 | 1014.2 |
| 20260504004242 | 72 | 165 | 1.7 | 7.0 | 0.00 | 0.00 | 0.00 | 26 | 1015.8 |
| 20260504004003 | 71 | 172 | 1.7 | 7.0 | 0.00 | 0.00 | 0.00 | 25 | 1014.3 |
| 20260504003735 | 72 | 279 | 1.7 | 7.0 | 0.00 | 0.00 | 0.00 | 28 | 1015.9 |
| 20260504003505 | 71 | 256 | 1.7 | 7.0 | 0.00 | 0.00 | 0.00 | 26 | 1014.4 |
| 20260504003229 | 71 | 107 | 1.7 | 5.2 | 0.00 | 0.00 | 0.00 | 29 | 1015.8 |
| 20260504003006 | 71 | 187 | 1.7 | 5.2 | 0.00 | 0.00 | 0.00 | 27 | 1014.3 |
| 20260504002723 | 71 | 93 | 1.7 | 6.1 | 0.00 | 0.00 | 0.00 | 28 | 1015.9 |
| 20260504002501 | 71 | 239 | 0.9 | 6.1 | 0.00 | 0.00 | 0.00 | 26 | 1014.4 |
| 20260504002217 | 71 | 132 | 1.7 | 6.1 | 0.00 | 0.00 | 0.00 | 27 | 1016.0 |
| 20260504002002 | 71 | 311 | 1.7 | 6.1 | 0.00 | 0.00 | 0.00 | 26 | 1014.5 |
| 20260504001711 | 71 | 196 | 0.9 | 5.2 | 0.00 | 0.00 | 0.00 | 29 | 1016.1 |
| 20260504001509 | 70 | 153 | 0.0 | 5.2 | 0.00 | 0.00 | 0.00 | 28 | 1014.5 |
| 20260504001205 | 70 | 169 | 1.7 | 6.1 | 0.00 | 0.00 | 0.00 | 29 | 1016.0 |
| 20260504001002 | 70 | 169 | 0.9 | 6.1 | 0.00 | 0.00 | 0.00 | 27 | 1014.5 |
| 20260504000705 | 70 | 215 | 1.7 | 6.1 | 0.00 | 0.00 | 0.00 | 28 | 1016.1 |
| 20260504000502 | 70 | 272 | 0.0 | 7.8 | 0.00 | 0.00 | 0.00 | 27 | 1014.7 |
| 20260504000205 | 70 | 120 | 1.7 | 7.8 | 0.00 | 0.00 | 0.00 | 29 | 1016.3 |
| 20260504000010 | 69 | 117 | 0.9 | 7.8 | 0.00 | 0.00 | 0.00 | 28 | 1014.6 |
| 20260503235705 | 70 | 253 | 0.9 | 7.8 | 0.00 | 0.00 | 0.00 | 27 | 1016.3 |
| 20260503235505 | 70 | 301 | 1.7 | 6.1 | 0.00 | 0.00 | 0.00 | 27 | 1014.6 |
| 20260503235203 | 70 | 298 | 1.7 | 7.8 | 0.00 | 0.00 | 0.00 | 28 | 1016.3 |
| 20260503235002 | 70 | 241 | 0.9 | 7.8 | 0.00 | 0.00 | 0.00 | 27 | 1014.6 |
| 20260503234926 | 70 | 303 | 2.6 | 7.8 | 0.00 | 0.00 | 0.00 | 28 | 1016.3 |
| 20260503234505 | 70 | 321 | 2.6 | 7.8 | 0.00 | 0.00 | 0.00 | 27 | 1014.7 |
| 20260503234204 | 70 | 117 | 2.6 | 7.8 | 0.00 | 0.00 | 0.00 | 28 | 1016.3 |
| 20260503234005 | 69 | 213 | 0.9 | 7.8 | 0.00 | 0.00 | 0.00 | 28 | 1014.8 |
| 20260503233703 | 70 | 193 | 2.6 | 7.8 | 0.00 | 0.00 | 0.00 | 28 | 1016.4 |
| 20260503233505 | 69 | 197 | 2.6 | 7.8 | 0.00 | 0.00 | 0.00 | 28 | 1014.9 |
| 20260503233203 | 70 | 238 | 2.6 | 7.8 | 0.00 | 0.00 | 0.00 | 28 | 1016.4 |
| 20260503233002 | 69 | 288 | 2.6 | 7.8 | 0.00 | 0.00 | 0.00 | 28 | 1014.9 |
| 20260503232925 | 70 | 227 | 2.6 | 6.1 | 0.00 | 0.00 | 0.00 | 29 | 1016.4 |
| 20260503232501 | 69 | 197 | 1.7 | 6.1 | 0.00 | 0.00 | 0.00 | 30 | 1014.9 |
| 20260503232203 | 70 | 210 | 1.7 | 5.2 | 0.00 | 0.00 | 0.00 | 30 | 1016.5 |
| 20260503232001 | 69 | 239 | 1.7 | 5.2 | 0.00 | 0.00 | 0.00 | 28 | 1015.0 |
| 20260503231703 | 69 | 246 | 0.9 | 4.3 | 0.00 | 0.00 | 0.00 | 30 | 1016.6 |
| 20260503231508 | 69 | 329 | 0.9 | 4.3 | 0.00 | 0.00 | 0.00 | 30 | 1015.0 |
| 20260503231203 | 69 | 148 | 1.7 | 7.0 | 0.00 | 0.00 | 0.00 | 29 | 1016.7 |
| 20260503231005 | 69 | 226 | 0.0 | 7.0 | 0.00 | 0.00 | 0.00 | 28 | 1015.2 |
| 20260503230927 | 69 | 313 | 1.7 | 7.0 | 0.00 | 0.00 | 0.00 | 29 | 1016.6 |
| 20260503230502 | 69 | 260 | 0.9 | 7.8 | 0.00 | 0.00 | 0.00 | 27 | 1015.1 |
| 20260503230204 | 69 | 248 | 2.6 | 7.8 | 0.00 | 0.00 | 0.00 | 29 | 1016.7 |
| 20260503230009 | 69 | 277 | 1.7 | 7.8 | 0.00 | 0.00 | 0.00 | 29 | 1015.2 |
| 20260503225703 | 69 | 218 | 2.6 | 7.8 | 0.00 | 0.00 | 0.00 | 28 | 1016.7 |
| 20260503225503 | 69 | 315 | 2.6 | 7.8 | 0.00 | 0.00 | 0.00 | 27 | 1015.3 |
| 20260503225204 | 70 | 243 | 1.7 | 7.8 | 0.00 | 0.00 | 0.00 | 29 | 1016.8 |
| 20260503225003 | 69 | 263 | 0.9 | 7.8 | 0.00 | 0.00 | 0.00 | 28 | 1015.4 |
| 20260503224703 | 70 | 325 | 2.6 | 7.8 | 0.00 | 0.00 | 0.00 | 28 | 1017.1 |
| 20260503224517 | 69 | 303 | 1.7 | 7.8 | 0.00 | 0.00 | 0.00 | 28 | 1015.5 |
| 20260503224157 | 69 | 254 | 3.5 | 8.7 | 0.00 | 0.00 | 0.00 | 29 | 1017.1 |
| 20260503224008 | 69 | 277 | 1.7 | 8.7 | 0.00 | 0.00 | 0.00 | 29 | 1015.5 |
| 20260503223911 | 69 | 261 | 3.5 | 8.7 | 0.00 | 0.00 | 0.00 | 28 | 1017.1 |
| 20260503223502 | 69 | 215 | 4.3 | 10.4 | 0.00 | 0.00 | 0.00 | 27 | 1015.7 |
| 20260503223145 | 70 | 290 | 2.6 | 10.4 | 0.00 | 0.00 | 0.00 | 28 | 1017.2 |
| 20260503223013 | 69 | 231 | 2.6 | 10.4 | 0.00 | 0.00 | 0.00 | 27 | 1015.7 |
| 20260503222639 | 70 | 236 | 2.6 | 10.4 | 0.00 | 0.00 | 0.00 | 28 | 1017.3 |
| 20260503222505 | 69 | 267 | 4.3 | 10.4 | 0.00 | 0.00 | 0.00 | 28 | 1015.6 |
| 20260503222133 | 70 | 229 | 1.7 | 7.8 | 0.00 | 0.00 | 0.00 | 27 | 1017.2 |
| 20260503222002 | 69 | 263 | 2.6 | 7.8 | 0.00 | 0.00 | 0.00 | 28 | 1015.8 |
| 20260503221627 | 70 | 231 | 0.9 | 4.3 | 0.00 | 0.00 | 0.00 | 28 | 1017.4 |
| 20260503221513 | 69 | 221 | 0.9 | 4.3 | 0.00 | 0.00 | 0.00 | 27 | 1015.9 |
| 20260503221122 | 70 | 227 | 0.9 | 5.2 | 0.00 | 0.00 | 0.00 | 28 | 1017.4 |
| 20260503221002 | 69 | 320 | 0.9 | 5.2 | 0.00 | 0.00 | 0.00 | 28 | 1015.9 |
| 20260503220615 | 69 | 252 | 1.7 | 7.0 | 0.00 | 0.00 | 0.00 | 32 | 1017.4 |
| 20260503220502 | 69 | 110 | 1.7 | 7.0 | 0.00 | 0.00 | 0.00 | 29 | 1015.9 |
| 20260503220109 | 69 | 200 | 2.6 | 7.0 | 0.00 | 0.00 | 0.00 | 28 | 1017.5 |
| 20260503220006 | 69 | 258 | 0.9 | 7.8 | 0.00 | 0.00 | 0.00 | 27 | 1016.0 |
| 20260503215602 | 69 | 225 | 2.6 | 9.6 | 0.00 | 0.00 | 0.00 | 29 | 1017.5 |
| 20260503215503 | 69 | 286 | 2.6 | 9.6 | 0.00 | 0.00 | 0.00 | 27 | 1016.0 |
| 20260503215101 | 70 | 275 | 2.6 | 9.6 | 0.00 | 0.00 | 0.00 | 27 | 1017.6 |
| 20260503215002 | 69 | 244 | 1.7 | 9.6 | 0.00 | 0.00 | 0.00 | 27 | 1016.1 |
| 20260503214602 | 69 | 288 | 2.6 | 7.8 | 0.00 | 0.00 | 0.00 | 29 | 1017.7 |
| 20260503214512 | 69 | 249 | 1.7 | 7.8 | 0.00 | 0.00 | 0.00 | 28 | 1016.1 |
| 20260503214101 | 69 | 275 | 2.6 | 7.0 | 0.00 | 0.00 | 0.00 | 27 | 1017.6 |
| 20260503214002 | 69 | 217 | 2.6 | 7.0 | 0.00 | 0.00 | 0.00 | 27 | 1016.1 |
| 20260503213601 | 69 | 159 | 2.6 | 7.0 | 0.00 | 0.00 | 0.00 | 27 | 1017.9 |
| 20260503213509 | 69 | 303 | 1.7 | 7.0 | 0.00 | 0.00 | 0.00 | 26 | 1016.3 |
| 20260503213100 | 70 | 315 | 2.6 | 7.0 | 0.00 | 0.00 | 0.00 | 27 | 1017.9 |
| 20260503213018 | 70 | 299 | 2.6 | 7.0 | 0.00 | 0.00 | 0.00 | 26 | 1016.3 |
| 20260503212559 | 70 | 271 | 2.6 | 9.6 | 0.00 | 0.00 | 0.00 | 27 | 1018.0 |
| 20260503212503 | 70 | 254 | 1.7 | 9.6 | 0.00 | 0.00 | 0.00 | 27 | 1016.3 |
| 20260503212059 | 70 | 15 | 2.6 | 9.6 | 0.00 | 0.00 | 0.00 | 27 | 1018.0 |
| 20260503212005 | 69 | 315 | 1.7 | 9.6 | 0.00 | 0.00 | 0.00 | 26 | 1016.3 |
| 20260503211825 | 69 | 115 | 2.6 | 7.0 | 0.00 | 0.00 | 0.00 | 27 | 1017.9 |
| 20260503211529 | 69 | 202 | 2.6 | 7.0 | 0.00 | 0.00 | 0.00 | 26 | 1016.4 |
| 20260503211010 | 69 | 216 | 0.9 | 7.8 | 0.00 | 0.00 | 0.00 | 27 | 1016.5 |
| 20260503210559 | 70 | 161 | 2.6 | 9.6 | 0.00 | 0.00 | 0.00 | 26 | 1018.0 |
| 20260503210503 | 69 | 287 | 1.7 | 9.6 | 0.00 | 0.00 | 0.00 | 29 | 1016.5 |
| 20260503210059 | 69 | 264 | 2.6 | 9.6 | 0.00 | 0.00 | 0.00 | 31 | 1018.1 |
| 20260503210017 | 69 | 167 | 2.6 | 9.6 | 0.00 | 0.00 | 0.00 | 29 | 1016.5 |
| 20260503205559 | 69 | 240 | 3.5 | 9.6 | 0.00 | 0.00 | 0.00 | 27 | 1018.2 |
| 20260503205503 | 69 | 232 | 2.6 | 9.6 | 0.00 | 0.00 | 0.00 | 27 | 1016.7 |